STARLINK-11080, 60727

Orbit data source: Space-Track

STARLINK-11080, 60727 is a payload satellite owned by SpaceX/Seattle (US) in LEO that was launched on Wed, 28 Aug 2024 UTC via an FALCON 9 launch vehicle from the Air Force Eastern Test Range (AFETR). Payload-class satellites include a variety of spacecraft equipped with specific instruments for various scientific and technological missions. These include communications satellites like Starlink; space stations such as the ISS; scientific satellites like the Hubble; Earth observation satellites from companies like Planet Labs, Umbra, and HawkEye 360; GPS; miniature CubeSats for education and research; and military/defense satellites.

Loading next visibility...
Identifier
60727, 2024-152H
Orbit
LEO
Country
Flag of USUS
Related business
Manufacturer
SpaceX/Seattle
Mission
Operational Commercial Communications
Bus & Motor
STARLINK V2MD, Unknown motor
Mass
960 kg wet, ~910 kg dry
Launch date (UTC)
2024-08-28 (1 year ago)
Launch vehicle
FALCON 9
Launch site
Air Force Eastern Test Range (AFETR)
Object type
Payload
Rocket body
Debris
Shape & HBR
Box + 2 Pan, 18.1 m
Radar Cross Section
36.964 m², Large (>1 m²)

Expand to show TLE details & history
Last TLE update: 21 hours ago

TLE from 21 hours ago
0 STARLINK-11080
1 60727U 24152H   25347.27441150  .00000206  00000-0  65527-5 0  9999
2 60727  53.1602 182.1757 0000921  72.2958 287.8160 15.69715118 75397
Epoch: 2025-12-13T06:35Z
TLE epoch observation values (Epoch: 2025-12-13T06:35:09.153Z)
Latitude
-0.00006°
Longitude
1.18349°
Altitude
360.437 km
Speed
7.694 km/s
True Right ascension
12h 08m 42s
True Declination
0° 00' 00"
Sunlit
Object was in daylight at epoch
Visualization orbit readout
Latitude
Unknown
Longitude
Unknown
Altitude
Unknown
Speed
Unknown
Apparent Right ascension
Unknown
Apparent Declination
Unknown
Sunlit
N/A
Visualization observer readout
Local Sidereal Time
02:18:04
Azimuth
Unknown
Elevation
Unknown
Doppler factor
Unknown
Orbital elements
Apogee altitude
360.593 km
Perigee altitude
359.352 km
Semi-major axis
6,738.11 km
Eccentricity
0.00009
Inclination
53.1602°
RAAN
182.1757°
Arg. of periapsis
72.2958°
True anomaly
287.80595°
Mean anomaly
287.816°
Eccentric anomaly
287.81098°
Mean motion
3.92406 °/min
Orbital period
91.74 mins
BSTAR
0.0000065527
Loading maneuver chart data...
Computing Atmospheric mass density...
Loading historical data...
Loading historical data...
Loading historical data...
Loading historical data...
Loading historical data...
Loading historical data...
Loading historical data...

Documentation

Showing up to 5 results
|